Time,TemperatureF,DewpointF,PressureIn,WindDirection,WindDirectionDegrees,WindSpeedMPH,WindSpeedGustMPH,Humidity,HourlyPrecipIn,Conditions,Clouds,dailyrainin,SolarRadiationWatts/m^2,SoftwareType,DateUTC
2013-03-26 00:00:00,64.0,45.5,29.95,NNW,331,0.0,0.0,51,0.00,,SCT070,0.02,0.00,VWS V14.00,2013-03-26 04:00:00,
2013-03-26 00:05:00,63.7,45.8,29.95,NNW,348,0.0,0.0,52,0.00,,SCT070,0.00,0.00,VWS V14.00,2013-03-26 04:05:00,
2013-03-26 00:10:00,63.4,45.5,29.94,NNW,344,0.0,0.0,52,0.00,,SCT070,0.00,0.00,VWS V14.00,2013-03-26 04:10:00,
2013-03-26 00:15:00,63.2,44.8,29.94,North,355,0.0,0.0,51,0.00,,SCT070,0.00,0.00,VWS V14.00,2013-03-26 04:15:00,
2013-03-26 00:20:00,62.9,45.0,29.94,NNW,341,0.0,0.0,52,0.00,,SCT070,0.00,0.00,VWS V14.00,2013-03-26 04:20:00,
2013-03-26 00:25:00,62.6,44.8,29.95,NNW,327,0.0,0.0,52,0.00,,SCT070,0.00,0.00,VWS V14.00,2013-03-26 04:25:00,
2013-03-26 00:30:00,62.3,45.5,29.95,NNW,328,0.0,0.0,54,0.00,,SCT070,0.00,0.00,VWS V14.00,2013-03-26 04:30:00,
2013-03-26 00:35:00,62.2,46.3,29.95,NNW,329,0.0,2.0,56,0.00,,SCT070,0.00,0.00,VWS V14.00,2013-03-26 04:35:00,
2013-03-26 00:40:00,62.1,46.2,29.95,NW,306,1.0,2.0,56,0.00,,SCT070,0.00,0.00,VWS V14.00,2013-03-26 04:40:00,
2013-03-26 00:45:00,62.0,46.1,29.95,NW,312,3.0,6.0,56,0.00,,SCT070,0.00,0.00,VWS V14.00,2013-03-26 04:45:00,
2013-03-26 00:50:00,62.0,46.1,29.96,NW,325,5.0,7.0,56,0.00,,SCT070,0.00,0.00,VWS V14.00,2013-03-26 04:50:00,
2013-03-26 00:55:00,61.9,47.0,29.96,NNW,330,2.0,4.0,58,0.00,,SCT070,0.00,0.00,VWS V14.00,2013-03-26 04:55:00,
2013-03-26 01:00:00,61.8,46.9,29.96,NNW,331,7.0,7.0,58,0.00,,SCT070,0.00,0.00,VWS V14.00,2013-03-26 05:00:00,
2013-03-26 01:05:00,61.7,46.3,29.96,NNW,335,4.0,7.0,57,0.00,,SCT070,0.00,0.00,VWS V14.00,2013-03-26 05:05:00,
2013-03-26 01:10:00,61.6,46.7,29.96,NNW,341,5.0,9.0,58,0.00,,SCT070,0.00,0.00,VWS V14.00,2013-03-26 05:10:00,
2013-03-26 01:15:00,61.4,46.5,29.96,NNW,340,9.0,9.0,58,0.00,,SCT070,0.00,0.00,VWS V14.00,2013-03-26 05:15:00,
2013-03-26 01:20:00,61.2,45.9,29.96,NNW,344,4.0,11.0,57,0.00,,SCT070,0.00,0.00,VWS V14.00,2013-03-26 05:20:00,
2013-03-26 01:25:00,60.9,45.6,29.96,NNW,346,4.0,13.0,57,0.00,,SCT070,0.00,0.00,VWS V14.00,2013-03-26 05:25:00,
2013-03-26 01:30:00,60.7,45.8,29.96,NNW,343,5.0,10.0,58,0.00,,SCT070,0.00,0.00,VWS V14.00,2013-03-26 05:30:00,
2013-03-26 01:35:00,60.5,46.1,29.96,NNW,342,4.0,11.0,59,0.00,,SCT070,0.00,0.00,VWS V14.00,2013-03-26 05:35:00,
2013-03-26 01:40:00,60.2,46.7,29.96,NNW,333,5.0,6.0,61,0.00,,SCT070,0.00,0.00,VWS V14.00,2013-03-26 05:40:00,
2013-03-26 01:45:00,60.0,46.5,29.97,NNW,336,7.0,7.0,61,0.00,,SCT070,0.00,0.00,VWS V14.00,2013-03-26 05:45:00,
2013-03-26 01:50:00,59.8,46.3,29.97,North,355,11.0,13.0,61,0.00,,SCT070,0.00,0.00,VWS V14.00,2013-03-26 05:50:00,
2013-03-26 01:55:00,59.8,46.3,29.97,North,360,5.0,12.0,61,0.00,,SCT070,0.00,0.00,VWS V14.00,2013-03-26 05:55:00,
2013-03-26 02:00:00,59.8,45.9,29.97,North,355,7.0,11.0,60,0.00,,SCT070,0.00,0.00,VWS V14.00,2013-03-26 06:00:00,
2013-03-26 02:05:00,59.9,46.4,29.98,North,5,5.0,16.0,61,0.00,,SCT070,0.00,0.00,VWS V14.00,2013-03-26 06:05:00,
2013-03-26 02:10:00,59.9,46.0,29.97,North,9,3.0,11.0,60,0.00,,SCT070,0.00,0.00,VWS V14.00,2013-03-26 06:10:00,
2013-03-26 02:15:00,59.8,46.3,29.98,North,350,9.0,12.0,61,0.00,,SCT070,0.00,0.00,VWS V14.00,2013-03-26 06:15:00,
2013-03-26 02:21:00,59.7,46.7,29.97,North,355,7.0,10.0,62,0.00,,SCT070,0.00,0.00,VWS V14.00,2013-03-26 06:21:00,
2013-03-26 02:26:00,59.6,47.0,29.97,North,355,3.0,4.0,63,0.00,,SCT070,0.00,0.00,VWS V14.00,2013-03-26 06:26:00,
2013-03-26 02:31:00,59.5,46.5,29.96,NNE,16,9.0,15.0,62,0.00,,SCT070,0.00,0.00,VWS V14.00,2013-03-26 06:31:00,
2013-03-26 02:36:00,59.4,46.4,29.97,NNE,15,4.0,12.0,62,0.00,,SCT070,0.00,0.00,VWS V14.00,2013-03-26 06:36:00,
2013-03-26 02:41:00,59.4,46.8,29.97,North,351,6.0,7.0,63,0.00,,SCT070,0.00,0.00,VWS V14.00,2013-03-26 06:41:00,
2013-03-26 02:46:00,59.2,46.6,29.97,NNE,13,5.0,11.0,63,0.00,,SCT070,0.00,0.00,VWS V14.00,2013-03-26 06:46:00,
2013-03-26 02:51:00,59.1,46.5,29.96,North,360,7.0,7.0,63,0.00,,SCT070,0.00,0.00,VWS V14.00,2013-03-26 06:51:00,
2013-03-26 02:56:00,58.9,46.8,29.97,NNW,330,2.0,16.0,64,0.00,,SCT070,0.00,0.00,VWS V14.00,2013-03-26 06:56:00,
2013-03-26 03:01:00,58.8,46.7,29.96,North,9,13.0,16.0,64,0.00,,SCT070,0.00,0.00,VWS V14.00,2013-03-26 07:01:00,
2013-03-26 03:06:00,58.6,46.1,29.96,NNE,18,12.0,12.0,63,0.00,,SCT070,0.00,0.00,VWS V14.00,2013-03-26 07:06:00,
2013-03-26 03:11:00,58.5,46.4,29.95,NNE,15,7.0,16.0,64,0.00,,SCT070,0.00,0.00,VWS V14.00,2013-03-26 07:11:00,
2013-03-26 03:16:00,58.4,46.7,29.96,NNE,14,9.0,16.0,65,0.00,,SCT070,0.00,0.00,VWS V14.00,2013-03-26 07:16:00,
2013-03-26 03:21:00,58.3,46.6,29.96,North,11,5.0,14.0,65,0.00,,SCT070,0.00,0.00,VWS V14.00,2013-03-26 07:21:00,
2013-03-26 03:26:00,58.2,46.5,29.96,NNE,19,6.0,13.0,65,0.00,,SCT070,0.00,0.00,VWS V14.00,2013-03-26 07:26:00,
2013-03-26 03:31:00,58.2,46.9,29.97,NNE,17,6.0,9.0,66,0.00,,SCT070,0.00,0.00,VWS V14.00,2013-03-26 07:31:00,
2013-03-26 03:36:00,58.1,46.4,29.97,NNW,340,11.0,14.0,65,0.00,,SCT070,0.00,0.00,VWS V14.00,2013-03-26 07:36:00,
2013-03-26 03:42:00,58.2,46.9,29.97,NNE,19,5.0,5.0,66,0.00,,SCT070,0.00,0.00,VWS V14.00,2013-03-26 07:42:00,
2013-03-26 03:47:00,58.2,46.5,29.97,NNE,18,12.0,14.0,65,0.00,,SCT070,0.00,0.00,VWS V14.00,2013-03-26 07:47:00,
2013-03-26 03:52:00,58.2,46.1,29.97,North,9,14.0,17.0,64,0.00,,SCT070,0.00,0.00,VWS V14.00,2013-03-26 07:52:00,
2013-03-26 03:57:00,58.3,46.6,29.97,North,9,10.0,14.0,65,0.00,,SCT070,0.00,0.00,VWS V14.00,2013-03-26 07:57:00,
2013-03-26 04:02:00,58.3,46.2,29.97,North,355,11.0,15.0,64,0.00,,SCT070,0.00,0.00,VWS V14.00,2013-03-26 08:02:00,
2013-03-26 04:07:00,58.2,46.1,29.97,NNW,346,13.0,15.0,64,0.00,,SCT070,0.00,0.00,VWS V14.00,2013-03-26 08:07:00,
2013-03-26 04:12:00,58.2,46.1,29.97,North,9,5.0,14.0,64,0.00,,SCT070,0.00,0.00,VWS V14.00,2013-03-26 08:12:00,
2013-03-26 04:17:00,58.2,45.7,29.97,North,5,14.0,15.0,63,0.00,,SCT070,0.00,0.00,VWS V14.00,2013-03-26 08:17:00,
2013-03-26 04:22:00,58.2,45.3,29.97,NNE,17,10.0,14.0,62,0.00,,SCT070,0.00,0.00,VWS V14.00,2013-03-26 08:22:00,
2013-03-26 04:27:00,58.3,46.2,29.97,North,360,9.0,11.0,64,0.00,,SCT070,0.00,0.00,VWS V14.00,2013-03-26 08:27:00,
2013-03-26 04:32:00,58.3,45.3,29.97,NNE,17,10.0,14.0,62,0.00,,SCT070,0.00,0.00,VWS V14.00,2013-03-26 08:32:00,
2013-03-26 04:37:00,58.3,44.9,29.97,North,5,12.0,12.0,61,0.00,,SCT070,0.00,0.00,VWS V14.00,2013-03-26 08:37:00,
2013-03-26 04:42:00,58.3,44.9,29.97,North,9,5.0,9.0,61,0.00,,SCT070,0.00,0.00,VWS V14.00,2013-03-26 08:42:00,
2013-03-26 04:47:00,58.2,45.3,29.98,NNE,28,8.0,12.0,62,0.00,,SCT070,0.00,0.00,VWS V14.00,2013-03-26 08:47:00,
2013-03-26 04:52:00,58.2,45.7,29.98,NNE,15,6.0,10.0,63,0.00,,SCT070,0.00,0.00,VWS V14.00,2013-03-26 08:52:00,
2013-03-26 04:57:00,58.1,45.2,29.97,NNE,24,10.0,16.0,62,0.00,,SCT070,0.00,0.00,VWS V14.00,2013-03-26 08:57:00,
2013-03-26 05:02:00,58.1,45.2,29.97,NE,50,7.0,13.0,62,0.00,,SCT070,0.00,0.00,VWS V14.00,2013-03-26 09:02:00,
2013-03-26 05:07:00,58.0,45.1,29.98,North,11,7.0,11.0,62,0.00,,SCT070,0.00,0.00,VWS V14.00,2013-03-26 09:07:00,
2013-03-26 05:12:00,57.9,44.5,29.97,NNE,24,12.0,16.0,61,0.00,,SCT070,0.00,0.00,VWS V14.00,2013-03-26 09:12:00,
2013-03-26 05:17:00,57.8,44.9,29.98,North,5,14.0,14.0,62,0.00,,SCT070,0.00,0.00,VWS V14.00,2013-03-26 09:17:00,
2013-03-26 05:22:00,57.7,44.4,29.97,NNE,31,10.0,19.0,61,0.00,,SCT070,0.00,0.00,VWS V14.00,2013-03-26 09:22:00,
2013-03-26 05:27:00,57.6,45.1,29.97,NNE,28,11.0,11.0,63,0.00,,SCT070,0.00,0.00,VWS V14.00,2013-03-26 09:27:00,
2013-03-26 05:32:00,57.6,45.1,29.98,North,5,10.0,18.0,63,0.00,,SCT070,0.00,0.00,VWS V14.00,2013-03-26 09:32:00,
2013-03-26 05:37:00,57.5,44.6,29.98,North,360,7.0,16.0,62,0.00,,SCT070,0.00,0.00,VWS V14.00,2013-03-26 09:37:00,
2013-03-26 05:42:00,57.5,45.0,29.99,NNE,19,7.0,11.0,63,0.00,,SCT070,0.00,0.00,VWS V14.00,2013-03-26 09:42:00,
2013-03-26 05:47:00,57.4,44.9,29.99,NNE,19,7.0,12.0,63,0.00,,SCT070,0.00,0.00,VWS V14.00,2013-03-26 09:47:00,
2013-03-26 05:52:00,57.4,44.9,29.99,NE,41,6.0,15.0,63,0.00,,SCT070,0.00,0.00,VWS V14.00,2013-03-26 09:52:00,
2013-03-26 05:57:00,57.3,45.2,29.99,NNE,17,7.0,10.0,64,0.00,,SCT070,0.00,0.00,VWS V14.00,2013-03-26 09:57:00,
2013-03-26 06:03:00,57.3,45.7,30.00,NNE,15,13.0,14.0,65,0.00,,SCT070,0.00,0.00,VWS V14.00,2013-03-26 10:03:00,
2013-03-26 06:08:00,57.2,45.6,29.99,NNE,13,6.0,10.0,65,0.00,,SCT070,0.00,0.00,VWS V14.00,2013-03-26 10:08:00,
2013-03-26 06:13:00,57.3,45.7,30.00,North,10,8.0,10.0,65,0.00,,SCT070,0.00,0.00,VWS V14.00,2013-03-26 10:13:00,
2013-03-26 06:18:00,57.3,45.7,30.00,North,360,12.0,13.0,65,0.00,,SCT070,0.00,0.00,VWS V14.00,2013-03-26 10:18:00,
2013-03-26 06:23:00,57.2,45.6,30.00,NNE,25,3.0,10.0,65,0.00,,SCT070,0.00,0.00,VWS V14.00,2013-03-26 10:23:00,
2013-03-26 06:28:00,57.2,45.2,30.00,North,5,8.0,9.0,64,0.00,,SCT070,0.00,0.00,VWS V14.00,2013-03-26 10:28:00,
2013-03-26 06:33:00,57.1,45.0,30.00,NNE,14,6.0,10.0,64,0.00,,SCT070,0.00,0.00,VWS V14.00,2013-03-26 10:33:00,
2013-03-26 06:38:00,57.1,45.0,30.00,North,5,7.0,11.0,64,0.00,,SCT070,0.00,0.00,VWS V14.00,2013-03-26 10:38:00,
2013-03-26 06:43:00,57.0,44.1,30.00,NNE,32,6.0,11.0,62,0.00,,SCT070,0.00,0.00,VWS V14.00,2013-03-26 10:43:00,
2013-03-26 06:48:00,57.0,43.3,30.01,NNE,24,6.0,12.0,60,0.00,,SCT070,0.00,0.00,VWS V14.00,2013-03-26 10:48:00,
2013-03-26 06:53:00,56.9,43.6,30.01,North,5,11.0,11.0,61,0.00,,SCT070,0.00,0.00,VWS V14.00,2013-03-26 10:53:00,
2013-03-26 06:58:00,56.8,43.5,30.02,NNE,28,6.0,10.0,61,0.00,,SCT070,0.00,0.00,VWS V14.00,2013-03-26 10:58:00,
2013-03-26 07:03:00,56.7,43.4,30.02,NE,40,4.0,11.0,61,0.00,,SCT070,0.00,0.00,VWS V14.00,2013-03-26 11:03:00,
2013-03-26 07:08:00,56.5,42.8,30.01,NE,39,6.0,8.0,60,0.00,,SCT070,0.00,0.00,VWS V14.00,2013-03-26 11:08:00,
2013-03-26 07:13:00,56.4,43.1,30.01,NNE,16,9.0,9.0,61,0.00,,SCT070,0.00,0.00,VWS V14.00,2013-03-26 11:13:00,
2013-03-26 07:18:00,56.3,43.0,30.02,North,11,9.0,9.0,61,0.00,,SCT070,0.00,0.00,VWS V14.00,2013-03-26 11:18:00,
2013-03-26 07:23:00,56.2,43.4,30.02,North,5,2.0,6.0,62,0.00,,SCT070,0.00,0.00,VWS V14.00,2013-03-26 11:23:00,
2013-03-26 07:28:00,56.1,42.8,30.03,North,360,7.0,10.0,61,0.00,,SCT070,0.00,0.00,VWS V14.00,2013-03-26 11:28:00,
2013-03-26 07:33:00,55.9,42.7,30.03,NNE,19,7.0,12.0,61,0.00,,SCT070,0.00,5.00,VWS V14.00,2013-03-26 11:33:00,
2013-03-26 07:38:00,55.9,43.1,30.02,NNE,22,12.0,14.0,62,0.00,,SCT070,0.00,14.00,VWS V14.00,2013-03-26 11:38:00,
2013-03-26 07:43:00,55.8,43.4,30.02,NNE,14,14.0,15.0,63,0.00,,SCT070,0.00,26.00,VWS V14.00,2013-03-26 11:43:00,
2013-03-26 07:48:00,55.8,43.4,30.03,NNE,30,5.0,6.0,63,0.00,,SCT070,0.00,21.00,VWS V14.00,2013-03-26 11:48:00,
2013-03-26 07:53:00,55.8,43.4,30.03,North,360,7.0,11.0,63,0.00,,SCT070,0.00,25.00,VWS V14.00,2013-03-26 11:53:00,
2013-03-26 07:58:00,55.8,43.0,30.03,NE,43,4.0,10.0,62,0.00,,SCT070,0.00,28.00,VWS V14.00,2013-03-26 11:58:00,
2013-03-26 08:03:00,55.7,42.9,30.03,NNE,17,4.0,8.0,62,0.00,,SCT070,0.00,30.00,VWS V14.00,2013-03-26 12:03:00,
2013-03-26 08:08:00,55.7,42.5,30.03,North,355,10.0,13.0,61,0.00,,SCT070,0.00,113.00,VWS V14.00,2013-03-26 12:08:00,
2013-03-26 08:13:00,55.8,42.6,30.04,NNE,30,10.0,10.0,61,0.00,,SCT070,0.00,102.00,VWS V14.00,2013-03-26 12:13:00,
2013-03-26 08:18:00,56.0,42.8,30.04,NNE,13,7.0,11.0,61,0.00,,SCT070,0.00,95.00,VWS V14.00,2013-03-26 12:18:00,
2013-03-26 08:23:00,56.0,42.3,30.05,NNE,20,6.0,9.0,60,0.00,,SCT070,0.00,54.00,VWS V14.00,2013-03-26 12:23:00,
2013-03-26 08:28:00,55.9,41.3,30.05,North,10,10.0,12.0,58,0.00,,SCT070,0.00,51.00,VWS V14.00,2013-03-26 12:28:00,
2013-03-26 08:33:00,55.8,41.7,30.05,North,5,10.0,13.0,59,0.00,,SCT070,0.00,118.00,VWS V14.00,2013-03-26 12:33:00,
2013-03-26 08:38:00,55.9,41.3,30.05,North,5,7.0,14.0,58,0.00,,SCT070,0.00,125.00,VWS V14.00,2013-03-26 12:38:00,
2013-03-26 08:43:00,56.0,41.5,30.05,NE,38,7.0,11.0,58,0.00,,SCT070,0.00,123.00,VWS V14.00,2013-03-26 12:43:00,
2013-03-26 08:48:00,56.2,41.6,30.05,NE,36,9.0,12.0,58,0.00,,SCT070,0.00,62.00,VWS V14.00,2013-03-26 12:48:00,
2013-03-26 08:53:00,56.3,40.4,30.05,NNE,19,10.0,12.0,55,0.00,,SCT070,0.00,135.00,VWS V14.00,2013-03-26 12:53:00,
2013-03-26 08:58:00,56.5,40.1,30.06,NNE,22,9.0,14.0,54,0.00,,SCT070,0.00,144.00,VWS V14.00,2013-03-26 12:58:00,
2013-03-26 09:03:00,56.7,40.3,30.05,NNE,27,9.0,18.0,54,0.00,,SCT070,0.00,98.00,VWS V14.00,2013-03-26 13:03:00,
2013-03-26 09:08:00,56.7,40.3,30.06,NNE,22,6.0,15.0,54,0.00,,SCT070,0.00,95.00,VWS V14.00,2013-03-26 13:08:00,
2013-03-26 09:13:00,56.7,40.3,30.06,NNE,28,9.0,18.0,54,0.00,,SCT070,0.00,62.00,VWS V14.00,2013-03-26 13:13:00,
2013-03-26 09:18:00,56.7,38.8,30.06,NNE,17,6.0,18.0,51,0.00,,SCT070,0.00,151.00,VWS V14.00,2013-03-26 13:18:00,
2013-03-26 09:23:00,56.9,39.5,30.06,North,5,7.0,9.0,52,0.00,,SCT070,0.00,95.00,VWS V14.00,2013-03-26 13:23:00,
2013-03-26 09:28:00,57.2,40.2,30.07,North,9,5.0,9.0,53,0.00,,SCT070,0.00,183.00,VWS V14.00,2013-03-26 13:28:00,
2013-03-26 09:33:00,57.6,39.1,30.07,NNE,18,9.0,17.0,50,0.00,,SCT070,0.00,132.00,VWS V14.00,2013-03-26 13:33:00,
2013-03-26 09:38:00,57.8,39.8,30.07,NE,53,12.0,12.0,51,0.00,,SCT070,0.00,172.00,VWS V14.00,2013-03-26 13:38:00,
2013-03-26 09:43:00,58.0,40.0,30.07,NE,35,5.0,6.0,51,0.00,,SCT070,0.00,171.00,VWS V14.00,2013-03-26 13:43:00,
2013-03-26 09:48:00,58.6,39.5,30.07,NE,42,7.0,12.0,49,0.00,,SCT070,0.00,171.00,VWS V14.00,2013-03-26 13:48:00,
2013-03-26 09:53:00,58.8,38.6,30.07,North,360,11.0,16.0,47,0.00,,SCT070,0.00,142.00,VWS V14.00,2013-03-26 13:53:00,
2013-03-26 09:59:00,58.7,38.5,30.07,North,5,12.0,13.0,47,0.00,,SCT070,0.00,167.00,VWS V14.00,2013-03-26 13:59:00,
2013-03-26 10:04:00,58.7,38.0,30.07,NNE,15,6.0,14.0,46,0.00,,SCT070,0.00,167.00,VWS V14.00,2013-03-26 14:04:00,
2013-03-26 10:08:00,59.1,38.4,30.07,North,5,6.0,14.0,46,0.00,,SCT070,0.00,169.00,VWS V14.00,2013-03-26 14:08:00,
2013-03-26 10:14:00,59.1,38.4,30.07,NNE,18,12.0,16.0,46,0.00,,SCT070,0.00,171.00,VWS V14.00,2013-03-26 14:14:00,
2013-03-26 10:19:00,58.9,37.6,30.08,NNE,13,8.0,14.0,45,0.00,,SCT070,0.00,169.00,VWS V14.00,2013-03-26 14:19:00,
2013-03-26 10:24:00,58.9,38.7,30.08,North,360,15.0,15.0,47,0.00,,SCT070,0.00,169.00,VWS V14.00,2013-03-26 14:24:00,
2013-03-26 10:29:00,59.3,38.5,30.08,North,355,9.0,13.0,46,0.00,,SCT070,0.00,169.00,VWS V14.00,2013-03-26 14:29:00,
2013-03-26 10:34:00,59.3,38.0,30.08,NNW,347,10.0,15.0,45,0.00,,CLR,0.00,169.00,VWS V14.00,2013-03-26 14:34:00,
2013-03-26 10:39:00,59.3,38.5,30.08,NNE,17,10.0,17.0,46,0.00,,CLR,0.00,169.00,VWS V14.00,2013-03-26 14:39:00,
2013-03-26 10:44:00,59.3,39.1,30.08,North,360,7.0,15.0,47,0.00,,CLR,0.00,169.00,VWS V14.00,2013-03-26 14:44:00,
2013-03-26 10:49:00,59.4,38.6,30.08,NNE,26,12.0,15.0,46,0.00,,CLR,0.00,169.00,VWS V14.00,2013-03-26 14:49:00,
2013-03-26 10:54:00,59.9,39.1,30.08,North,355,7.0,10.0,46,0.00,,CLR,0.00,169.00,VWS V14.00,2013-03-26 14:54:00,
2013-03-26 10:59:00,60.0,38.6,30.08,NNE,15,10.0,13.0,45,0.00,,CLR,0.00,169.00,VWS V14.00,2013-03-26 14:59:00,
2013-03-26 11:04:00,60.2,38.2,30.08,North,5,3.0,14.0,44,0.00,,CLR,0.00,167.00,VWS V14.00,2013-03-26 15:04:00,
2013-03-26 11:09:00,60.0,38.0,30.08,North,360,9.0,14.0,44,0.00,,CLR,0.00,167.00,VWS V14.00,2013-03-26 15:09:00,
2013-03-26 11:14:00,59.8,37.3,30.08,North,360,6.0,15.0,43,0.00,,CLR,0.00,171.00,VWS V14.00,2013-03-26 15:14:00,
2013-03-26 11:19:00,60.1,37.0,30.08,NNE,25,10.0,16.0,42,0.00,,CLR,0.00,171.00,VWS V14.00,2013-03-26 15:19:00,
2013-03-26 11:24:00,60.6,38.0,30.08,North,10,11.0,15.0,43,0.00,,CLR,0.00,167.00,VWS V14.00,2013-03-26 15:24:00,
2013-03-26 11:29:00,60.8,38.8,30.07,North,351,10.0,16.0,44,0.00,,CLR,0.00,165.00,VWS V14.00,2013-03-26 15:29:00,
2013-03-26 11:34:00,60.3,38.3,30.07,NNE,17,6.0,9.0,44,0.00,,CLR,0.00,167.00,VWS V14.00,2013-03-26 15:34:00,
2013-03-26 11:39:00,60.9,38.9,30.07,NE,44,7.0,14.0,44,0.00,,CLR,0.00,167.00,VWS V14.00,2013-03-26 15:39:00,
2013-03-26 11:44:00,61.1,38.5,30.08,North,11,11.0,21.0,43,0.00,,CLR,0.00,165.00,VWS V14.00,2013-03-26 15:44:00,
2013-03-26 11:49:00,60.9,39.4,30.07,NNE,19,9.0,15.0,45,0.00,,CLR,0.00,163.00,VWS V14.00,2013-03-26 15:49:00,
2013-03-26 11:54:00,61.4,38.7,30.07,NNW,330,10.0,13.0,43,0.00,,CLR,0.00,162.00,VWS V14.00,2013-03-26 15:54:00,
2013-03-26 11:59:00,61.3,38.6,30.07,North,5,4.0,13.0,43,0.00,,CLR,0.00,162.00,VWS V14.00,2013-03-26 15:59:00,
2013-03-26 12:04:00,61.1,38.5,30.07,North,355,11.0,12.0,43,0.00,,CLR,0.00,160.00,VWS V14.00,2013-03-26 16:04:00,
2013-03-26 12:09:00,61.1,37.9,30.08,North,5,14.0,14.0,42,0.00,,CLR,0.00,185.00,VWS V14.00,2013-03-26 16:09:00,
2013-03-26 12:14:00,61.6,37.7,30.08,North,5,13.0,16.0,41,0.00,,CLR,0.00,113.00,VWS V14.00,2013-03-26 16:14:00,
2013-03-26 12:19:00,61.2,36.1,30.08,NW,305,7.0,15.0,39,0.00,,CLR,0.00,127.00,VWS V14.00,2013-03-26 16:19:00,
2013-03-26 12:24:00,60.9,37.1,30.08,North,5,5.0,14.0,41,0.00,,CLR,0.00,167.00,VWS V14.00,2013-03-26 16:24:00,
2013-03-26 12:29:00,61.2,37.3,30.08,NNE,26,10.0,13.0,41,0.00,,CLR,0.00,158.00,VWS V14.00,2013-03-26 16:29:00,
2013-03-26 12:34:00,61.7,38.4,30.08,NNW,348,9.0,15.0,42,0.00,,FEW100,0.00,163.00,VWS V14.00,2013-03-26 16:34:00,
2013-03-26 12:39:00,61.8,37.2,30.08,NNW,348,10.0,15.0,40,0.00,,FEW100,0.00,179.00,VWS V14.00,2013-03-26 16:39:00,
2013-03-26 12:44:00,61.8,37.9,30.08,North,360,10.0,11.0,41,0.00,,FEW100,0.00,127.00,VWS V14.00,2013-03-26 16:44:00,
2013-03-26 12:49:00,61.9,37.3,30.08,NNE,29,9.0,14.0,40,0.00,,FEW100,0.00,202.00,VWS V14.00,2013-03-26 16:49:00,
2013-03-26 12:55:00,61.7,38.4,30.08,NNW,346,11.0,12.0,42,0.00,,FEW100,0.00,155.00,VWS V14.00,2013-03-26 16:55:00,
2013-03-26 13:00:00,62.0,38.0,30.07,NNE,20,10.0,16.0,41,0.00,,FEW100,0.00,151.00,VWS V14.00,2013-03-26 17:00:00,
2013-03-26 13:04:00,62.3,40.1,30.07,North,5,11.0,13.0,44,0.00,,FEW100,0.00,167.00,VWS V14.00,2013-03-26 17:04:00,
2013-03-26 13:10:00,62.6,39.8,30.07,North,355,14.0,14.0,43,0.00,,FEW100,0.00,125.00,VWS V14.00,2013-03-26 17:10:00,
2013-03-26 13:15:00,62.3,37.0,30.07,North,5,9.0,14.0,39,0.00,,FEW100,0.00,174.00,VWS V14.00,2013-03-26 17:15:00,
2013-03-26 13:20:00,62.6,37.3,30.07,NE,38,12.0,13.0,39,0.00,,FEW100,0.00,146.00,VWS V14.00,2013-03-26 17:20:00,
2013-03-26 13:25:00,62.7,34.7,30.07,North,360,6.0,13.0,35,0.00,,FEW100,0.00,176.00,VWS V14.00,2013-03-26 17:25:00,
2013-03-26 13:30:00,62.4,37.1,30.06,NNW,345,6.0,11.0,39,0.00,,FEW100,0.00,169.00,VWS V14.00,2013-03-26 17:30:00,
2013-03-26 13:35:00,62.5,37.9,30.07,NNW,343,8.0,17.0,40,0.00,,CLR,0.00,172.00,VWS V14.00,2013-03-26 17:35:00,
2013-03-26 13:40:00,62.3,37.0,30.06,North,360,9.0,11.0,39,0.00,,CLR,0.00,172.00,VWS V14.00,2013-03-26 17:40:00,
2013-03-26 13:45:00,62.7,37.4,30.06,North,5,12.0,18.0,39,0.00,,CLR,0.00,172.00,VWS V14.00,2013-03-26 17:45:00,
2013-03-26 13:50:00,62.8,36.8,30.06,NNE,17,14.0,14.0,38,0.00,,CLR,0.00,167.00,VWS V14.00,2013-03-26 17:50:00,
2013-03-26 13:55:00,62.5,36.6,30.06,North,350,9.0,17.0,38,0.00,,CLR,0.00,174.00,VWS V14.00,2013-03-26 17:55:00,
2013-03-26 14:00:00,62.3,38.9,30.06,NNW,340,9.0,9.0,42,0.00,,CLR,0.00,167.00,VWS V14.00,2013-03-26 18:00:00,
2013-03-26 14:05:00,62.5,38.5,30.06,NW,319,13.0,14.0,41,0.00,,CLR,0.00,165.00,VWS V14.00,2013-03-26 18:05:00,
2013-03-26 14:10:00,62.4,37.8,30.06,North,351,6.0,14.0,40,0.00,,CLR,0.00,165.00,VWS V14.00,2013-03-26 18:10:00,
2013-03-26 14:15:00,62.5,40.3,30.05,North,5,9.0,11.0,44,0.00,,CLR,0.00,163.00,VWS V14.00,2013-03-26 18:15:00,
2013-03-26 14:20:00,62.8,39.4,30.05,NNE,25,7.0,13.0,42,0.00,,CLR,0.00,163.00,VWS V14.00,2013-03-26 18:20:00,
2013-03-26 14:25:00,62.7,39.9,30.05,NW,309,11.0,16.0,43,0.00,,CLR,0.00,165.00,VWS V14.00,2013-03-26 18:25:00,
2013-03-26 14:30:00,62.9,40.1,30.05,NNW,344,4.0,11.0,43,0.00,,CLR,0.00,163.00,VWS V14.00,2013-03-26 18:30:00,
2013-03-26 14:35:00,63.2,39.1,30.05,North,360,11.0,16.0,41,0.00,,CLR,0.00,163.00,VWS V14.00,2013-03-26 18:35:00,
2013-03-26 14:40:00,63.1,38.4,30.05,NNE,22,7.0,13.0,40,0.00,,CLR,0.00,162.00,VWS V14.00,2013-03-26 18:40:00,
2013-03-26 14:45:00,63.1,39.0,30.05,North,5,6.0,14.0,41,0.00,,CLR,0.00,162.00,VWS V14.00,2013-03-26 18:45:00,
2013-03-26 14:50:00,63.6,39.5,30.05,NNE,23,9.0,17.0,41,0.00,,CLR,0.00,163.00,VWS V14.00,2013-03-26 18:50:00,
2013-03-26 14:55:00,63.6,40.7,30.05,North,5,5.0,17.0,43,0.00,,CLR,0.00,158.00,VWS V14.00,2013-03-26 18:55:00,
2013-03-26 15:00:00,63.9,40.4,30.05,North,5,10.0,12.0,42,0.00,,CLR,0.00,158.00,VWS V14.00,2013-03-26 19:00:00,
2013-03-26 15:05:00,63.6,41.3,30.05,WNW,298,5.0,12.0,44,0.00,,CLR,0.00,156.00,VWS V14.00,2013-03-26 19:05:00,
2013-03-26 15:10:00,64.1,41.2,30.04,North,355,6.0,12.0,43,0.00,,CLR,0.00,155.00,VWS V14.00,2013-03-26 19:10:00,
2013-03-26 15:15:00,64.0,40.5,30.05,NW,309,10.0,20.0,42,0.00,,CLR,0.00,153.00,VWS V14.00,2013-03-26 19:15:00,
2013-03-26 15:20:00,64.1,39.9,30.05,North,11,11.0,18.0,41,0.00,,CLR,0.00,151.00,VWS V14.00,2013-03-26 19:20:00,
2013-03-26 15:25:00,64.1,37.3,30.05,NW,318,14.0,15.0,37,0.00,,CLR,0.00,149.00,VWS V14.00,2013-03-26 19:25:00,
2013-03-26 15:30:00,63.6,35.5,30.04,NNW,346,8.0,16.0,35,0.00,,CLR,0.00,149.00,VWS V14.00,2013-03-26 19:30:00,
2013-03-26 15:35:00,63.5,36.1,30.04,NNW,327,4.0,12.0,36,0.00,,CLR,0.00,146.00,VWS V14.00,2013-03-26 19:35:00,
2013-03-26 15:40:00,63.6,34.7,30.04,North,350,16.0,19.0,34,0.00,,CLR,0.00,146.00,VWS V14.00,2013-03-26 19:40:00,
2013-03-26 15:45:00,63.8,37.0,30.04,NW,313,7.0,18.0,37,0.00,,CLR,0.00,144.00,VWS V14.00,2013-03-26 19:45:00,
2013-03-26 15:50:00,63.7,36.3,30.04,NNW,327,6.0,13.0,36,0.00,,CLR,0.00,142.00,VWS V14.00,2013-03-26 19:50:00,
2013-03-26 15:55:00,63.8,39.0,30.04,NNW,347,12.0,13.0,40,0.00,,CLR,0.00,141.00,VWS V14.00,2013-03-26 19:55:00,
2013-03-26 16:00:00,63.5,37.5,30.04,North,5,15.0,20.0,38,0.00,,CLR,0.00,139.00,VWS V14.00,2013-03-26 20:00:00,
2013-03-26 16:05:00,63.5,38.1,30.04,North,5,14.0,16.0,39,0.00,,CLR,0.00,137.00,VWS V14.00,2013-03-26 20:05:00,
2013-03-26 16:10:00,63.6,39.5,30.04,NNW,327,17.0,17.0,41,0.00,,CLR,0.00,134.00,VWS V14.00,2013-03-26 20:10:00,
2013-03-26 16:15:00,63.7,38.3,30.04,NNW,347,10.0,13.0,39,0.00,,CLR,0.00,132.00,VWS V14.00,2013-03-26 20:15:00,
2013-03-26 16:20:00,63.8,39.0,30.04,North,355,5.0,15.0,40,0.00,,CLR,0.00,128.00,VWS V14.00,2013-03-26 20:20:00,
2013-03-26 16:25:00,63.7,38.3,30.04,North,9,10.0,14.0,39,0.00,,CLR,0.00,128.00,VWS V14.00,2013-03-26 20:25:00,
2013-03-26 16:30:00,63.7,39.6,30.04,NNW,348,13.0,20.0,41,0.00,,CLR,0.00,125.00,VWS V14.00,2013-03-26 20:30:00,
2013-03-26 16:35:00,63.9,39.8,30.04,NNE,19,13.0,21.0,41,0.00,,CLR,0.00,121.00,VWS V14.00,2013-03-26 20:35:00,
2013-03-26 16:40:00,64.4,39.6,30.04,North,360,22.0,22.0,40,0.00,,CLR,0.00,121.00,VWS V14.00,2013-03-26 20:40:00,
2013-03-26 16:45:00,64.3,40.7,30.04,NW,324,4.0,14.0,42,0.00,,CLR,0.00,118.00,VWS V14.00,2013-03-26 20:45:00,
2013-03-26 16:50:00,64.3,38.2,30.04,NNW,342,13.0,15.0,38,0.00,,CLR,0.00,118.00,VWS V14.00,2013-03-26 20:50:00,
2013-03-26 16:55:00,64.2,38.1,30.04,North,355,12.0,17.0,38,0.00,,CLR,0.00,118.00,VWS V14.00,2013-03-26 20:55:00,
2013-03-26 17:00:00,64.0,38.6,30.04,NNW,335,7.0,13.0,39,0.00,,CLR,0.00,118.00,VWS V14.00,2013-03-26 21:00:00,
2013-03-26 17:05:00,64.1,39.3,30.04,NNE,28,12.0,14.0,40,0.00,,CLR,0.00,116.00,VWS V14.00,2013-03-26 21:05:00,
2013-03-26 17:11:00,63.9,39.1,30.04,NNE,25,14.0,14.0,40,0.00,,CLR,0.00,113.00,VWS V14.00,2013-03-26 21:11:00,
2013-03-26 17:16:00,64.1,39.3,30.04,North,355,14.0,19.0,40,0.00,,CLR,0.00,111.00,VWS V14.00,2013-03-26 21:16:00,
2013-03-26 17:21:00,64.2,40.0,30.04,NW,315,4.0,12.0,41,0.00,,CLR,0.00,111.00,VWS V14.00,2013-03-26 21:21:00,
2013-03-26 17:26:00,64.3,39.5,30.04,NNW,337,9.0,19.0,40,0.00,,CLR,0.00,109.00,VWS V14.00,2013-03-26 21:26:00,
2013-03-26 17:31:00,64.5,40.3,30.04,NNW,338,13.0,17.0,41,0.00,,CLR,0.00,109.00,VWS V14.00,2013-03-26 21:31:00,
2013-03-26 17:36:00,64.3,40.7,30.05,NNE,12,3.0,15.0,42,0.00,,CLR,0.00,105.00,VWS V14.00,2013-03-26 21:36:00,
2013-03-26 17:41:00,64.7,40.5,30.05,NNW,340,10.0,12.0,41,0.00,,CLR,0.00,104.00,VWS V14.00,2013-03-26 21:41:00,
2013-03-26 17:46:00,64.5,40.3,30.05,North,355,13.0,16.0,41,0.00,,CLR,0.00,104.00,VWS V14.00,2013-03-26 21:46:00,
2013-03-26 17:52:00,64.3,41.3,30.05,North,5,9.0,15.0,43,0.00,,CLR,0.00,98.00,VWS V14.00,2013-03-26 21:52:00,
2013-03-26 17:57:00,64.5,41.5,30.05,North,360,13.0,14.0,43,0.00,,CLR,0.00,98.00,VWS V14.00,2013-03-26 21:57:00,
2013-03-26 18:02:00,64.5,40.9,30.05,North,349,9.0,13.0,42,0.00,,CLR,0.00,93.00,VWS V14.00,2013-03-26 22:02:00,
2013-03-26 18:07:00,64.5,40.9,30.05,North,5,12.0,17.0,42,0.00,,CLR,0.00,90.00,VWS V14.00,2013-03-26 22:07:00,
2013-03-26 18:12:00,64.2,41.3,30.05,NNW,341,14.0,15.0,43,0.00,,CLR,0.00,86.00,VWS V14.00,2013-03-26 22:12:00,
2013-03-26 18:17:00,64.4,41.4,30.05,NNW,341,10.0,13.0,43,0.00,,CLR,0.00,83.00,VWS V14.00,2013-03-26 22:17:00,
2013-03-26 18:22:00,64.4,41.4,30.05,NNW,331,7.0,17.0,43,0.00,,CLR,0.00,77.00,VWS V14.00,2013-03-26 22:22:00,
2013-03-26 18:27:00,64.4,42.0,30.05,NNW,348,5.0,10.0,44,0.00,,CLR,0.00,74.00,VWS V14.00,2013-03-26 22:27:00,
2013-03-26 18:32:00,64.4,42.0,30.05,NNW,341,6.0,13.0,44,0.00,,CLR,0.00,69.00,VWS V14.00,2013-03-26 22:32:00,
2013-03-26 18:37:00,64.4,43.2,30.06,NW,316,4.0,10.0,46,0.00,,CLR,0.00,65.00,VWS V14.00,2013-03-26 22:37:00,
2013-03-26 18:42:00,64.3,40.7,30.06,North,355,9.0,15.0,42,0.00,,CLR,0.00,60.00,VWS V14.00,2013-03-26 22:42:00,
2013-03-26 18:47:00,64.1,39.3,30.06,NNW,345,4.0,13.0,40,0.00,,CLR,0.00,54.00,VWS V14.00,2013-03-26 22:47:00,
2013-03-26 18:52:00,63.9,39.1,30.06,NNW,343,6.0,11.0,40,0.00,,CLR,0.00,47.00,VWS V14.00,2013-03-26 22:52:00,
2013-03-26 18:57:00,63.7,40.2,30.05,North,350,7.0,11.0,42,0.00,,CLR,0.00,40.00,VWS V14.00,2013-03-26 22:57:00,
2013-03-26 19:02:00,63.4,39.9,30.06,North,355,11.0,15.0,42,0.00,,CLR,0.00,33.00,VWS V14.00,2013-03-26 23:02:00,
2013-03-26 19:07:00,63.2,40.3,30.06,NNW,329,11.0,11.0,43,0.00,,CLR,0.00,28.00,VWS V14.00,2013-03-26 23:07:00,
2013-03-26 19:12:00,62.9,40.1,30.06,North,350,8.0,14.0,43,0.00,,CLR,0.00,23.00,VWS V14.00,2013-03-26 23:12:00,
2013-03-26 19:17:00,62.7,39.9,30.06,NNW,346,4.0,15.0,43,0.00,,CLR,0.00,16.00,VWS V14.00,2013-03-26 23:17:00,
2013-03-26 19:23:00,62.4,38.4,30.07,North,355,9.0,14.0,41,0.00,,CLR,0.00,7.00,VWS V14.00,2013-03-26 23:23:00,
2013-03-26 19:28:00,62.1,38.8,30.07,NNW,347,6.0,10.0,42,0.00,,CLR,0.00,5.00,VWS V14.00,2013-03-26 23:28:00,
2013-03-26 19:33:00,61.9,39.8,30.07,NNW,342,6.0,10.0,44,0.00,,CLR,0.00,0.00,VWS V14.00,2013-03-26 23:33:00,
2013-03-26 19:38:00,61.6,40.1,30.08,NNW,342,10.0,10.0,45,0.00,,CLR,0.00,0.00,VWS V14.00,2013-03-26 23:38:00,
2013-03-26 19:43:00,61.4,39.9,30.08,NNW,342,5.0,7.0,45,0.00,,CLR,0.00,0.00,VWS V14.00,2013-03-26 23:43:00,
2013-03-26 19:48:00,61.2,41.4,30.08,NNW,348,3.0,6.0,48,0.00,,CLR,0.00,0.00,VWS V14.00,2013-03-26 23:48:00,
2013-03-26 19:53:00,61.0,40.7,30.09,NW,320,2.0,6.0,47,0.00,,CLR,0.00,0.00,VWS V14.00,2013-03-26 23:53:00,
2013-03-26 19:58:00,60.8,40.5,30.09,NW,306,5.0,8.0,47,0.00,,CLR,0.00,0.00,VWS V14.00,2013-03-26 23:58:00,
2013-03-26 20:03:00,60.5,40.2,30.09,NNW,328,2.0,13.0,47,0.00,,CLR,0.00,0.00,VWS V14.00,2013-03-27 00:03:00,
2013-03-26 20:08:00,60.2,39.4,30.10,NW,326,10.0,13.0,46,0.00,,CLR,0.00,0.00,VWS V14.00,2013-03-27 00:08:00,
2013-03-26 20:13:00,59.9,39.1,30.10,NNW,340,7.0,12.0,46,0.00,,CLR,0.00,0.00,VWS V14.00,2013-03-27 00:13:00,
2013-03-26 20:18:00,59.5,38.7,30.10,North,355,6.0,10.0,46,0.00,,CLR,0.00,0.00,VWS V14.00,2013-03-27 00:18:00,
2013-03-26 20:23:00,59.2,38.5,30.10,North,350,8.0,14.0,46,0.00,,CLR,0.00,0.00,VWS V14.00,2013-03-27 00:23:00,
2013-03-26 20:28:00,58.9,37.6,30.10,North,355,7.0,17.0,45,0.00,,CLR,0.00,0.00,VWS V14.00,2013-03-27 00:28:00,
2013-03-26 20:33:00,58.7,37.4,30.11,North,355,13.0,13.0,45,0.00,,CLR,0.00,0.00,VWS V14.00,2013-03-27 00:33:00,
2013-03-26 20:38:00,58.4,37.7,30.11,North,350,11.0,11.0,46,0.00,,CLR,0.00,0.00,VWS V14.00,2013-03-27 00:38:00,
2013-03-26 20:43:00,58.2,37.5,30.11,WNW,303,9.0,14.0,46,0.00,,CLR,0.00,0.00,VWS V14.00,2013-03-27 00:43:00,
2013-03-26 20:48:00,58.0,37.9,30.11,North,350,7.0,10.0,47,0.00,,CLR,0.00,0.00,VWS V14.00,2013-03-27 00:48:00,
2013-03-26 20:53:00,57.8,37.2,30.11,North,355,8.0,11.0,46,0.00,,CLR,0.00,0.00,VWS V14.00,2013-03-27 00:53:00,
2013-03-26 20:58:00,57.6,38.1,30.11,NNW,348,3.0,10.0,48,0.00,,CLR,0.00,0.00,VWS V14.00,2013-03-27 00:58:00,
2013-03-26 21:03:00,57.4,37.3,30.12,NNW,327,2.0,16.0,47,0.00,,CLR,0.00,0.00,VWS V14.00,2013-03-27 01:03:00,
2013-03-26 21:08:00,57.2,37.7,30.12,NNW,340,6.0,7.0,48,0.00,,CLR,0.00,0.00,VWS V14.00,2013-03-27 01:08:00,
2013-03-26 21:13:00,57.1,37.6,30.12,NNW,341,1.0,6.0,48,0.00,,CLR,0.00,0.00,VWS V14.00,2013-03-27 01:13:00,
2013-03-26 21:18:00,56.8,37.3,30.13,NW,326,7.0,10.0,48,0.00,,CLR,0.00,0.00,VWS V14.00,2013-03-27 01:18:00,
2013-03-26 21:23:00,56.6,37.7,30.13,NW,323,4.0,10.0,49,0.00,,CLR,0.00,0.00,VWS V14.00,2013-03-27 01:23:00,
2013-03-26 21:28:00,56.4,38.0,30.13,NNW,342,10.0,12.0,50,0.00,,CLR,0.00,0.00,VWS V14.00,2013-03-27 01:28:00,
2013-03-26 21:33:00,56.3,37.9,30.13,North,349,9.0,13.0,50,0.00,,CLR,0.00,0.00,VWS V14.00,2013-03-27 01:33:00,
2013-03-26 21:38:00,56.1,38.7,30.14,NNW,344,1.0,7.0,52,0.00,,CLR,0.00,0.00,VWS V14.00,2013-03-27 01:38:00,
2013-03-26 21:43:00,55.9,38.5,30.14,NNW,348,6.0,10.0,52,0.00,,CLR,0.00,0.00,VWS V14.00,2013-03-27 01:43:00,
2013-03-26 21:48:00,55.7,39.3,30.14,NNW,344,4.0,9.0,54,0.00,,CLR,0.00,0.00,VWS V14.00,2013-03-27 01:48:00,
2013-03-26 21:53:00,55.5,39.1,30.14,North,349,1.0,4.0,54,0.00,,CLR,0.00,0.00,VWS V14.00,2013-03-27 01:53:00,
2013-03-26 21:58:00,55.3,39.4,30.14,NW,315,0.0,6.0,55,0.00,,CLR,0.00,0.00,VWS V14.00,2013-03-27 01:58:00,
2013-03-26 22:03:00,55.1,39.2,30.14,NW,326,3.0,6.0,55,0.00,,CLR,0.00,0.00,VWS V14.00,2013-03-27 02:03:00,
2013-03-26 22:08:00,54.9,39.0,30.14,NNW,330,6.0,6.0,55,0.00,,CLR,0.00,0.00,VWS V14.00,2013-03-27 02:08:00,
2013-03-26 22:13:00,54.8,40.3,30.15,NNW,331,2.0,5.0,58,0.00,,CLR,0.00,0.00,VWS V14.00,2013-03-27 02:13:00,
2013-03-26 22:18:00,54.6,40.1,30.15,NNW,332,6.0,6.0,58,0.00,,CLR,0.00,0.00,VWS V14.00,2013-03-27 02:18:00,
2013-03-26 22:23:00,54.5,40.5,30.15,NW,323,2.0,2.0,59,0.00,,CLR,0.00,0.00,VWS V14.00,2013-03-27 02:23:00,
2013-03-26 22:28:00,54.3,40.3,30.15,NW,326,1.0,3.0,59,0.00,,CLR,0.00,0.00,VWS V14.00,2013-03-27 02:28:00,
2013-03-26 22:33:00,54.2,40.2,30.15,NNW,329,3.0,5.0,59,0.00,,CLR,0.00,0.00,VWS V14.00,2013-03-27 02:33:00,
2013-03-26 22:39:00,54.1,40.1,30.15,North,349,7.0,8.0,59,0.00,,CLR,0.00,0.00,VWS V14.00,2013-03-27 02:39:00,
2013-03-26 22:44:00,53.9,39.9,30.15,NNW,336,5.0,9.0,59,0.00,,CLR,0.00,0.00,VWS V14.00,2013-03-27 02:44:00,
2013-03-26 22:49:00,53.7,39.7,30.16,NNW,333,3.0,7.0,59,0.00,,CLR,0.00,0.00,VWS V14.00,2013-03-27 02:49:00,
2013-03-26 22:54:00,53.5,40.0,30.16,NNW,340,0.0,5.0,60,0.00,,CLR,0.00,0.00,VWS V14.00,2013-03-27 02:54:00,
2013-03-26 22:59:00,53.3,40.6,30.16,NNW,343,2.0,5.0,62,0.00,,CLR,0.00,0.00,VWS V14.00,2013-03-27 02:59:00,
2013-03-26 23:04:00,53.0,40.3,30.16,NNW,342,7.0,7.0,62,0.00,,CLR,0.00,0.00,VWS V14.00,2013-03-27 03:04:00,
2013-03-26 23:09:00,52.8,40.6,30.16,NNW,338,3.0,5.0,63,0.00,,CLR,0.00,0.00,VWS V14.00,2013-03-27 03:09:00,
2013-03-26 23:14:00,52.6,40.8,30.17,NNW,340,4.0,10.0,64,0.00,,CLR,0.00,0.00,VWS V14.00,2013-03-27 03:14:00,
2013-03-26 23:19:00,52.4,40.2,30.17,NNW,337,3.0,5.0,63,0.00,,CLR,0.00,0.00,VWS V14.00,2013-03-27 03:19:00,
2013-03-26 23:24:00,52.3,40.5,30.17,NNW,344,5.0,10.0,64,0.00,,CLR,0.00,0.00,VWS V14.00,2013-03-27 03:24:00,
2013-03-26 23:29:00,52.1,40.7,30.17,NNW,342,5.0,8.0,65,0.00,,CLR,0.00,0.00,VWS V14.00,2013-03-27 03:29:00,
2013-03-26 23:34:00,52.0,40.6,30.17,NNW,342,8.0,9.0,65,0.00,,CLR,0.00,0.00,VWS V14.00,2013-03-27 03:34:00,
2013-03-26 23:39:00,51.9,40.9,30.17,NNW,340,5.0,7.0,66,0.00,,CLR,0.00,0.00,VWS V14.00,2013-03-27 03:39:00,
2013-03-26 23:44:00,51.9,41.3,30.17,NNW,329,4.0,9.0,67,0.00,,CLR,0.00,0.00,VWS V14.00,2013-03-27 03:44:00,
2013-03-26 23:49:00,51.9,41.7,30.17,NNW,336,5.0,10.0,68,0.00,,CLR,0.00,0.00,VWS V14.00,2013-03-27 03:49:00,
2013-03-26 23:54:00,51.8,41.6,30.17,North,349,4.0,11.0,68,0.00,,CLR,0.00,0.00,VWS V14.00,2013-03-27 03:54:00,
2013-03-26 23:59:00,51.7,41.1,30.17,NNW,335,4.0,8.0,67,0.00,,CLR,0.00,0.00,VWS V14.00,2013-03-27 03:59:00,